Regional Weather Roundup
Issued by NWS

Home | Current Version | Previous Version | Graphics & Text | Print | Product List | Glossary On
Versions: 1 2 3 4 5 6 7 8 9 10 11 12 13 14 15 16 17 18 19 20 21 22 23 24 25 26 27 28 29 30 31 32 33 34 35 36 37 38 39 40 41 42 43 44 45 46 47 48 49 50
863
ASUS43 KOAX 262310
RWRNE

WEATHER ROUNDUP FOR NEBRASKA
NATIONAL WEATHER SERVICE OMAHA NE
600 PM CDT MON JUN 26 2017

NOTES: SATELLITE DATA IS BEING USED TO AUGMENT CLOUD COVER ABOVE
       12000 FEET.
       "FAIR" INDICATES FEW OR NO CLOUDS BELOW 12,000 FEET WITH NO
       SIGNIFICANT WEATHER AND/OR OBSTRUCTIONS TO VISIBILITY.

  * THESE STATIONS DO NOT REPORT WEATHER SUCH AS RAIN...SNOW OR FOG.

NEZ001>004-019>022-054>056-270000-
NEBRASKA PANHANDLE

CITY           SKY/WX    TMP DP  RH WIND       PRES   REMARKS
SCOTTSBLUFF    SUNNY     83  41  22 SE8       30.10F
ALLIANCE       SUNNY     81  37  20 E10       30.12F
CHADRON        SUNNY     82  36  19 SE13      30.08F
GORDON         FAIR      77  38  24 E9        30.13F
KIMBALL        SUNNY     83  45  26 E5        30.15F
SIDNEY         SUNNY     83  49  30 E16G23    30.14F
$$

NEZ057>060-069>072-079>082-270000-
SOUTHWEST NEBRASKA

CITY           SKY/WX    TMP DP  RH WIND       PRES   REMARKS
NORTH PLATTE   SUNNY     81  44  27 E12       30.12F
IMPERIAL       PTSUNNY   80  54  40 E13G21    30.11S
LEXINGTON      SUNNY     79  49  34 E13G18    30.12S
MCCOOK         MOSUNNY   80  60  50 E17       30.10F
OGALLALA       SUNNY     82  39  21 E13       30.13S
$$

NEZ005>010-023>029-035>040-094-270000-
NORTH CENTRAL NEBRASKA

CITY           SKY/WX    TMP DP  RH WIND       PRES   REMARKS
VALENTINE      SUNNY     77  35  21 MISG      30.14F
AINSWORTH      SUNNY     74  41  30 E7        30.15F
BROKEN BOW     SUNNY     77  43  29 NE9       30.14S
O`NEILL        SUNNY     74  41  30 E8        30.15F
ORD            SUNNY     77  41  27 VRB7      30.12F
THEDFORD       SUNNY     77  41  27 NE6       30.16F
$$

NEZ041-046>049-061>064-073>077-083>087-270000-
SOUTH CENTRAL NEBRASKA

CITY           SKY/WX    TMP DP  RH WIND       PRES   REMARKS
GRAND ISLAND   SUNNY     76  52  43 NE13G22   30.12S
AURORA         SUNNY     77  51  39 E14       30.11S
HASTINGS       MOSUNNY   78  52  40 NE14G23   30.12R
HEBRON         MOSUNNY   72  61  69 NE7       30.10R
HOLDREGE       PTSUNNY   76  57  52 E8        30.11F
KEARNEY *      SUNNY     79  52  38 NE12      30.11S
YORK           SUNNY     77  50  38 NE14      30.11R
$$

NEZ011>018-030>034-042>045-270000-
NORTHEAST NEBRASKA

CITY           SKY/WX    TMP DP  RH WIND       PRES   REMARKS
NORFOLK        MOSUNNY   73  43  33 E6        30.13F
ALBION         SUNNY     76  44  31 N8        30.13F
BLAIR          PTSUNNY   75  49  41 NE7       30.11F
FREMONT        SUNNY     73  47  39 N5        30.12F
TEKAMAH        MOSUNNY   76  44  32 NE12      30.11F
WAYNE          SUNNY     72  43  35 NE6       30.14F
$$

NEZ050>053-065>068-078-088>093-270000-
SOUTHEAST NEBRASKA

CITY           SKY/WX    TMP DP  RH WIND       PRES   REMARKS
LINCOLN        MOSUNNY   77  56  48 NE7       30.11S
OMAHA EPPLEY   MOSUNNY   76  50  40 N10       30.10F
BEATRICE       PTSUNNY   68  66  94 E8        30.11F
FALLS CITY     CLOUDY    69  60  73 E6        30.12S
NEBRASKA CITY  MOSUNNY   72  62  72 S9        30.12F
PLATTSMOUTH    MOSUNNY   72  56  55 CALM      30.12R
$$

NEZ044-045-051>053-067-270000-
OMAHA AREA

CITY           SKY/WX    TMP DP  RH WIND       PRES   REMARKS
OMAHA EPPLEY   MOSUNNY   76  50  40 N10       30.10F
BLAIR          PTSUNNY   75  49  41 NE7       30.11F
FREMONT        SUNNY     73  47  39 N5        30.12F
MILLARD        MOSUNNY   77  53  42 N3        30.11S
OFFUTT AFB     MOSUNNY   76  50  39 N3        30.10S
PLATTSMOUTH    MOSUNNY   72  56  55 CALM      30.12R
WAHOO          FAIR      76  46  35 NE9       30.11F
$$




USA.gov is the U.S. government's official web portal to all federal, state and local government web resources and services.